Location: Friaudour
(46.0460°N, 1.2873°E)
Time: 20:14:50
(UTC+00:00)

Abrixas rocket - Pass Details

Date: 14 July 2020
Orbit: 338 x 346 km, 48.4° (Epoch: 13 August)

Event Time Altitude Azimuth Distance (km) Brightness Sun altitude
Exits shadow 01:34:26 35° 309° (NW) 570 3.0 -19.1°
Maximum altitude 01:35:20 54° 7° (N) 420 2.5 -19.0°
Drops below altitude 10° 01:38:08 10° 87° (E) 1,279 5.0 -18.8°
Sets 01:40:10 0° 92° (E) 2,117 6.1 -18.7°
